| time (UTC) | temp C | wind direction | speed KPH | gust KPH | rain 1hr cm | rain 24hr cm | rain mn cm | humidity % | barometer mb |
| 20260510190605 | 18 | 109 | 1.6 | 4.8 | 0.00 | 0.00 | 0.00 | 52 | 1018.8 |
| 20260510190106 | 18 | 294 | 1.6 | 4.8 | 0.00 | 0.00 | 0.00 | 52 | 1018.7 |
| 20260510185605 | 18 | 11 | 1.6 | 8.0 | 0.00 | 0.00 | 0.00 | 50 | 1018.8 |
| 20260510185105 | 18 | 36 | 0.0 | 4.8 | 0.00 | 0.00 | 0.00 | 51 | 1018.8 |
| 20260510184605 | 18 | 30 | 0.0 | 4.8 | 0.00 | 0.00 | 0.00 | 50 | 1018.9 |
| 20260510183605 | 18 | 316 | 1.6 | 3.2 | 0.00 | 0.00 | 0.00 | 50 | 1018.8 |
| 20260510183106 | 18 | 346 | 0.0 | 4.8 | 0.00 | 0.00 | 0.00 | 51 | 1018.8 |
| 20260510182105 | 18 | 327 | 1.6 | 4.8 | 0.00 | 0.00 | 0.00 | 51 | 1018.9 |
| 20260510181105 | 18 | 244 | 0.0 | 3.2 | 0.00 | 0.00 | 0.00 | 52 | 1018.8 |
| 20260510180605 | 18 | 5 | 1.6 | 3.2 | 0.00 | 0.00 | 0.00 | 50 | 1018.7 |
| 20260510180105 | 18 | 356 | 0.0 | 3.2 | 0.00 | 0.00 | 0.00 | 50 | 1018.4 |
| 20260510175605 | 18 | 22 | 1.6 | 3.2 | 0.00 | 0.00 | 0.00 | 51 | 1018.4 |
| 20260510175105 | 18 | 344 | 1.6 | 4.8 | 0.00 | 0.00 | 0.00 | 51 | 1018.4 |
| 20260510174605 | 18 | 343 | 3.2 | 9.7 | 0.00 | 0.00 | 0.00 | 49 | 1018.6 |
| 20260510174104 | 18 | 14 | 1.6 | 8.0 | 0.00 | 0.00 | 0.00 | 49 | 1018.6 |
| 20260510173605 | 18 | 275 | 0.0 | 4.8 | 0.00 | 0.00 | 0.00 | 48 | 1018.6 |
| 20260510173105 | 18 | 245 | 1.6 | 4.8 | 0.00 | 0.00 | 0.00 | 51 | 1018.7 |
| 20260510172105 | 17 | 0 | 1.6 | 4.8 | 0.00 | 0.00 | 0.00 | 50 | 1018.7 |
| 20260510171605 | 17 | 276 | 1.6 | 8.0 | 0.00 | 0.00 | 0.00 | 51 | 1018.6 |
| 20260510170605 | 17 | 256 | 0.0 | 4.8 | 0.00 | 0.00 | 0.00 | 52 | 1018.6 |
| 20260510170105 | 17 | 243 | 1.6 | 4.8 | 0.00 | 0.00 | 0.00 | 50 | 1018.7 |
| 20260510165105 | 17 | 18 | 1.6 | 3.2 | 0.00 | 0.00 | 0.00 | 50 | 1018.8 |
| 20260510164605 | 17 | 246 | 1.6 | 4.8 | 0.00 | 0.00 | 0.00 | 48 | 1018.8 |
| 20260510164105 | 17 | 246 | 1.6 | 3.2 | 0.00 | 0.00 | 0.00 | 49 | 1018.7 |
| 20260510163604 | 17 | 24 | 0.0 | 1.6 | 0.00 | 0.00 | 0.00 | 49 | 1018.7 |
| 20260510163105 | 17 | 27 | 1.6 | 4.8 | 0.00 | 0.00 | 0.00 | 49 | 1018.7 |
| 20260510162604 | 17 | 26 | 0.0 | 4.8 | 0.00 | 0.00 | 0.00 | 56 | 1018.7 |
| 20260510161105 | 17 | 138 | 0.0 | 1.6 | 0.00 | 0.00 | 0.00 | 54 | 1018.5 |
| 20260510160604 | 17 | 247 | 1.6 | 4.8 | 0.00 | 0.00 | 0.00 | 53 | 1018.5 |
| 20260510160105 | 16 | 100 | 1.6 | 4.8 | 0.00 | 0.00 | 0.00 | 55 | 1018.4 |
| 20260510155605 | 16 | 267 | 0.0 | 3.2 | 0.00 | 0.00 | 0.00 | 55 | 1018.5 |
| 20260510155105 | 16 | 269 | 0.0 | 4.8 | 0.00 | 0.00 | 0.00 | 59 | 1018.5 |
| 20260510154605 | 16 | 105 | 0.0 | 3.2 | 0.00 | 0.00 | 0.00 | 60 | 1018.4 |
| 20260510154104 | 16 | 107 | 1.6 | 3.2 | 0.00 | 0.00 | 0.00 | 58 | 1018.3 |
| 20260510153605 | 16 | 114 | 0.0 | 0.0 | 0.00 | 0.00 | 0.00 | 59 | 1018.2 |
| 20260510153105 | 16 | 119 | 0.0 | 0.0 | 0.00 | 0.00 | 0.00 | 60 | 1018.2 |
| 20260510152105 | 16 | 104 | 0.0 | 1.6 | 0.00 | 0.00 | 0.00 | 60 | 1018.1 |
| 20260510151606 | 15 | 108 | 0.0 | 1.6 | 0.00 | 0.00 | 0.00 | 61 | 1018.0 |
| 20260510151106 | 15 | 97 | 0.0 | 0.0 | 0.00 | 0.00 | 0.00 | 61 | 1018.0 |
| 20260510150605 | 15 | 355 | 0.0 | 1.6 | 0.00 | 0.00 | 0.00 | 63 | 1018.0 |
| 20260510150105 | 15 | 330 | 0.0 | 1.6 | 0.00 | 0.00 | 0.00 | 60 | 1018.0 |
| 20260510145604 | 15 | 242 | 0.0 | 1.6 | 0.00 | 0.00 | 0.00 | 62 | 1018.0 |
| 20260510145105 | 15 | 242 | 0.0 | 3.2 | 0.00 | 0.00 | 0.00 | 62 | 1017.8 |
| 20260510144605 | 15 | 26 | 0.0 | 1.6 | 0.00 | 0.00 | 0.00 | 63 | 1017.8 |
| 20260510143605 | 15 | 71 | 0.0 | 0.0 | 0.00 | 0.00 | 0.00 | 65 | 1017.6 |
| 20260510143105 | 14 | 71 | 0.0 | 3.2 | 0.00 | 0.00 | 0.00 | 67 | 1017.6 |
| 20260510142604 | 14 | 0 | 0.0 | 1.6 | 0.00 | 0.00 | 0.00 | 67 | 1017.6 |
| 20260510142105 | 13 | 20 | 0.0 | 1.6 | 0.00 | 0.00 | 0.00 | 68 | 1017.6 |
| 20260510141606 | 13 | 340 | 1.6 | 4.8 | 0.00 | 0.00 | 0.00 | 67 | 1017.6 |
| 20260510140605 | 13 | 330 | 0.0 | 0.0 | 0.00 | 0.00 | 0.00 | 69 | 1017.6 |
| 20260510140105 | 13 | 333 | 0.0 | 0.0 | 0.00 | 0.00 | 0.00 | 69 | 1017.5 |
| 20260510135605 | 13 | 333 | 0.0 | 0.0 | 0.00 | 0.00 | 0.00 | 69 | 1017.4 |
| 20260510134605 | 12 | 313 | 0.0 | 3.2 | 0.00 | 0.00 | 0.00 | 70 | 1017.3 |
| 20260510134105 | 12 | 298 | 1.6 | 4.8 | 0.00 | 0.00 | 0.00 | 69 | 1017.3 |
| 20260510133605 | 12 | 3 | 0.0 | 3.2 | 0.00 | 0.00 | 0.00 | 70 | 1017.4 |
| 20260510132604 | 12 | 0 | 0.0 | 1.6 | 0.00 | 0.00 | 0.00 | 71 | 1017.3 |
| 20260510132105 | 12 | 5 | 0.0 | 3.2 | 0.00 | 0.00 | 0.00 | 70 | 1017.2 |
| 20260510131605 | 12 | 318 | 0.0 | 1.6 | 0.00 | 0.00 | 0.00 | 71 | 1017.1 |
| 20260510131105 | 12 | 315 | 0.0 | 1.6 | 0.00 | 0.00 | 0.00 | 71 | 1017.0 |
| 20260510130105 | 12 | 290 | 1.6 | 4.8 | 0.00 | 0.00 | 0.00 | 72 | 1016.7 |
| 20260510125605 | 12 | 290 | 0.0 | 1.6 | 0.00 | 0.03 | 0.00 | 72 | 1016.6 |
| 20260510125105 | 12 | 287 | 1.6 | 4.8 | 0.00 | 0.03 | 0.00 | 72 | 1016.7 |
| 20260510124605 | 12 | 22 | 0.0 | 1.6 | 0.00 | 0.03 | 0.00 | 72 | 1016.8 |
| 20260510124105 | 12 | 15 | 0.0 | 1.6 | 0.00 | 0.03 | 0.00 | 72 | 1016.7 |
| 20260510123604 | 12 | 326 | 0.0 | 1.6 | 0.00 | 0.03 | 0.00 | 72 | 1016.5 |
| 20260510123104 | 12 | 315 | 0.0 | 0.0 | 0.00 | 0.03 | 0.00 | 73 | 1016.4 |
| 20260510122105 | 12 | 315 | 0.0 | 1.6 | 0.00 | 0.03 | 0.00 | 71 | 1016.5 |
| 20260510121604 | 12 | 314 | 0.0 | 0.0 | 0.00 | 0.03 | 0.00 | 72 | 1016.5 |
| 20260510121105 | 12 | 294 | 0.0 | 0.0 | 0.00 | 0.03 | 0.00 | 73 | 1016.5 |
| 20260510120604 | 12 | 294 | 0.0 | 1.6 | 0.00 | 0.03 | 0.00 | 72 | 1016.3 |
| 20260510120105 | 12 | 257 | 0.0 | 0.0 | 0.00 | 0.03 | 0.00 | 72 | 1016.2 |
| 20260510115605 | 12 | 257 | 0.0 | 1.6 | 0.00 | 0.03 | 0.00 | 72 | 1016.1 |
| 20260510115105 | 12 | 257 | 0.0 | 4.8 | 0.00 | 0.03 | 0.00 | 72 | 1016.2 |
| 20260510114605 | 12 | 290 | 0.0 | 0.0 | 0.00 | 0.03 | 0.00 | 74 | 1016.1 |
| 20260510114104 | 12 | 290 | 0.0 | 0.0 | 0.00 | 0.03 | 0.00 | 74 | 1015.8 |
| 20260510113605 | 12 | 290 | 0.0 | 1.6 | 0.00 | 0.03 | 0.00 | 72 | 1015.7 |
| 20260510113105 | 12 | 290 | 0.0 | 0.0 | 0.00 | 0.03 | 0.00 | 73 | 1015.7 |
| 20260510112605 | 12 | 290 | 0.0 | 1.6 | 0.00 | 0.03 | 0.00 | 73 | 1015.4 |
| 20260510112105 | 12 | 290 | 0.0 | 1.6 | 0.00 | 0.03 | 0.00 | 74 | 1015.4 |
| 20260510111605 | 12 | 289 | 0.0 | 3.2 | 0.00 | 0.03 | 0.00 | 74 | 1015.3 |
| 20260510111105 | 12 | 268 | 1.6 | 4.8 | 0.00 | 0.03 | 0.00 | 74 | 1015.4 |
| 20260510110605 | 12 | 73 | 0.0 | 1.6 | 0.00 | 0.03 | 0.00 | 76 | 1015.2 |
| 20260510110105 | 12 | 73 | 0.0 | 1.6 | 0.00 | 0.03 | 0.00 | 77 | 1015.1 |
| 20260510105604 | 12 | 73 | 0.0 | 3.2 | 0.00 | 0.03 | 0.00 | 76 | 1014.9 |
| 20260510105105 | 12 | 58 | 1.6 | 4.8 | 0.00 | 0.05 | 0.00 | 77 | 1014.9 |
| 20260510104604 | 12 | 51 | 0.0 | 3.2 | 0.00 | 0.05 | 0.00 | 79 | 1014.9 |
| 20260510104104 | 12 | 345 | 0.0 | 4.8 | 0.00 | 0.05 | 0.00 | 80 | 1014.8 |
| 20260510103604 | 12 | 18 | 0.0 | 4.8 | 0.00 | 0.08 | 0.00 | 81 | 1014.5 |
| 20260510103105 | 12 | 15 | 0.0 | 4.8 | 0.00 | 0.08 | 0.00 | 81 | 1014.4 |
| 20260510102604 | 13 | 336 | 0.0 | 1.6 | 0.00 | 0.10 | 0.00 | 82 | 1014.3 |
| 20260510102104 | 13 | 336 | 0.0 | 0.0 | 0.00 | 0.10 | 0.00 | 81 | 1014.2 |
| 20260510101605 | 13 | 336 | 0.0 | 3.2 | 0.00 | 0.10 | 0.00 | 81 | 1014.0 |
| 20260510101105 | 13 | 5 | 0.0 | 1.6 | 0.00 | 0.10 | 0.00 | 81 | 1014.0 |
| 20260510100606 | 13 | 25 | 0.0 | 0.0 | 0.00 | 0.10 | 0.00 | 81 | 1014.0 |
| 20260510100105 | 13 | 25 | 0.0 | 1.6 | 0.00 | 0.10 | 0.00 | 81 | 1013.9 |
| 20260510095105 | 13 | 25 | 0.0 | 4.8 | 0.00 | 0.10 | 0.00 | 81 | 1013.5 |
| 20260510094605 | 13 | 290 | 1.6 | 3.2 | 0.00 | 0.10 | 0.00 | 81 | 1013.5 |
| 20260510094104 | 13 | 246 | 0.0 | 3.2 | 0.00 | 0.10 | 0.00 | 81 | 1013.6 |
| 20260510093605 | 13 | 246 | 0.0 | 3.2 | 0.00 | 0.10 | 0.00 | 81 | 1013.4 |
| 20260510093105 | 13 | 246 | 0.0 | 1.6 | 0.00 | 0.10 | 0.00 | 82 | 1013.2 |
| 20260510092605 | 13 | 246 | 1.6 | 4.8 | 0.00 | 0.10 | 0.00 | 82 | 1013.0 |
| 20260510092105 | 13 | 24 | 1.6 | 3.2 | 0.00 | 0.10 | 0.00 | 83 | 1012.9 |
| 20260510091605 | 13 | 24 | 0.0 | 0.0 | 0.00 | 0.10 | 0.00 | 83 | 1012.9 |
| 20260510091105 | 13 | 24 | 0.0 | 0.0 | 0.00 | 0.13 | 0.00 | 82 | 1012.9 |
| 20260510090605 | 13 | 24 | 0.0 | 0.0 | 0.00 | 0.13 | 0.00 | 82 | 1012.6 |
| 20260510085605 | 13 | 24 | 0.0 | 0.0 | 0.00 | 0.13 | 0.00 | 82 | 1012.2 |
| 20260510085105 | 13 | 24 | 0.0 | 0.0 | 0.00 | 0.13 | 0.00 | 82 | 1012.0 |
| 20260510084605 | 13 | 24 | 0.0 | 0.0 | 0.00 | 0.15 | 0.00 | 81 | 1012.1 |
| 20260510084104 | 13 | 24 | 0.0 | 0.0 | 0.00 | 0.15 | 0.00 | 81 | 1012.0 |
| 20260510083605 | 13 | 24 | 0.0 | 0.0 | 0.00 | 0.15 | 0.00 | 80 | 1011.9 |
| 20260510082105 | 14 | 24 | 0.0 | 0.0 | 0.00 | 0.18 | 0.00 | 79 | 1011.8 |
| 20260510081605 | 14 | 24 | 0.0 | 0.0 | 0.00 | 0.20 | 0.00 | 79 | 1011.8 |
| 20260510081105 | 15 | 24 | 0.0 | 0.0 | 0.00 | 0.20 | 0.00 | 79 | 1011.7 |
| 20260510080605 | 15 | 24 | 0.0 | 0.0 | 0.00 | 0.20 | 0.00 | 79 | 1011.8 |
| 20260510080104 | 15 | 24 | 0.0 | 0.0 | 0.00 | 0.23 | 0.00 | 79 | 1011.9 |
| 20260510075605 | 15 | 24 | 0.0 | 0.0 | 0.00 | 0.23 | 0.00 | 78 | 1011.7 |
| 20260510075105 | 15 | 24 | 0.0 | 0.0 | 0.00 | 0.23 | 0.00 | 78 | 1011.8 |
| 20260510074105 | 15 | 24 | 0.0 | 0.0 | 0.00 | 0.25 | 0.00 | 77 | 1011.5 |
| 20260510073605 | 15 | 24 | 0.0 | 0.0 | 0.00 | 0.25 | 0.00 | 76 | 1011.6 |
| 20260510073105 | 15 | 24 | 0.0 | 0.0 | 0.00 | 0.28 | 0.00 | 76 | 1011.7 |
| 20260510072105 | 16 | 24 | 0.0 | 0.0 | 0.00 | 0.28 | 0.00 | 75 | 1011.5 |
| 20260510071605 | 16 | 24 | 0.0 | 0.0 | 0.00 | 0.28 | 0.00 | 74 | 1011.5 |
| 20260510071105 | 16 | 24 | 0.0 | 0.0 | 0.00 | 0.28 | 0.00 | 74 | 1011.5 |
| 20260510070605 | 16 | 24 | 0.0 | 0.0 | 0.00 | 0.28 | 0.00 | 74 | 1011.5 |
| 20260510070105 | 16 | 24 | 0.0 | 0.0 | 0.00 | 0.28 | 0.00 | 73 | 1011.5 |
| 20260510065605 | 16 | 24 | 0.0 | 3.2 | 0.00 | 0.28 | 0.00 | 73 | 1011.5 |
| 20260510065105 | 16 | 32 | 0.0 | 4.8 | 0.00 | 0.30 | 0.00 | 73 | 1011.5 |
| 20260510064605 | 16 | 218 | 1.6 | 4.8 | 0.00 | 0.30 | 0.00 | 73 | 1011.5 |
| 20260510064104 | 17 | 216 | 0.0 | 1.6 | 0.00 | 0.30 | 0.00 | 75 | 1011.7 |
| 20260510063605 | 17 | 215 | 1.6 | 8.0 | 0.00 | 0.30 | 0.00 | 74 | 1011.7 |
| 20260510063105 | 16 | 25 | 0.0 | 8.0 | 0.00 | 0.30 | 0.00 | 75 | 1011.7 |
| 20260510062605 | 16 | 15 | 1.6 | 4.8 | 0.00 | 0.30 | 0.00 | 76 | 1011.9 |
| 20260510062105 | 16 | 52 | 1.6 | 8.0 | 0.00 | 0.30 | 0.00 | 77 | 1011.8 |
| 20260510061605 | 16 | 69 | 0.0 | 3.2 | 0.00 | 0.30 | 0.00 | 77 | 1011.8 |
| 20260510061105 | 16 | 59 | 1.6 | 4.8 | 0.00 | 0.30 | 0.00 | 77 | 1011.8 |
| 20260510060605 | 16 | 33 | 0.0 | 4.8 | 0.00 | 0.30 | 0.00 | 78 | 1011.8 |
| 20260510060105 | 16 | 27 | 1.6 | 4.8 | 0.00 | 0.30 | 0.00 | 79 | 1011.8 |
| 20260510055605 | 16 | 16 | 1.6 | 4.8 | 0.00 | 0.30 | 0.00 | 79 | 1011.8 |
| 20260510055105 | 15 | 212 | 0.0 | 1.6 | 0.00 | 0.30 | 0.00 | 80 | 1011.6 |
| 20260510054105 | 15 | 210 | 0.0 | 1.6 | 0.00 | 0.30 | 0.00 | 80 | 1011.5 |
| 20260510053605 | 15 | 210 | 0.0 | 0.0 | 0.00 | 0.30 | 0.00 | 80 | 1011.6 |
| 20260510053105 | 15 | 210 | 0.0 | 0.0 | 0.00 | 0.30 | 0.00 | 80 | 1011.6 |
| 20260510052605 | 15 | 210 | 0.0 | 0.0 | 0.00 | 0.30 | 0.00 | 80 | 1011.5 |
| 20260510052105 | 15 | 210 | 0.0 | 0.0 | 0.00 | 0.30 | 0.00 | 79 | 1011.5 |
| 20260510051605 | 15 | 210 | 0.0 | 0.0 | 0.00 | 0.30 | 0.00 | 79 | 1011.6 |
| 20260510051105 | 15 | 211 | 0.0 | 0.0 | 0.00 | 0.30 | 0.00 | 79 | 1011.5 |
| 20260510050104 | 15 | 211 | 0.0 | 0.0 | 0.00 | 0.30 | 0.00 | 78 | 1011.4 |
| 20260510045605 | 15 | 211 | 0.0 | 0.0 | 0.00 | 0.30 | 0.00 | 78 | 1011.3 |
| 20260510045105 | 15 | 211 | 0.0 | 0.0 | 0.00 | 0.30 | 0.00 | 79 | 1011.2 |
| 20260510044605 | 15 | 211 | 0.0 | 3.2 | 0.00 | 0.30 | 0.00 | 79 | 1011.3 |
| 20260510043105 | 15 | 211 | 0.0 | 0.0 | 0.00 | 0.30 | 0.00 | 79 | 1011.3 |
| 20260510042104 | 15 | 211 | 0.0 | 0.0 | 0.00 | 0.30 | 0.00 | 79 | 1011.2 |
| 20260510041104 | 15 | 211 | 0.0 | 0.0 | 0.00 | 0.30 | 0.00 | 79 | 1011.1 |
| 20260510040604 | 15 | 211 | 0.0 | 0.0 | 0.00 | 0.30 | 0.00 | 79 | 1011.2 |
| 20260510040105 | 15 | 211 | 0.0 | 0.0 | 0.00 | 0.30 | 0.00 | 78 | 1011.2 |
| 20260510035605 | 15 | 211 | 0.0 | 0.0 | 0.00 | 0.30 | 0.30 | 78 | 1011.0 |
| 20260510035105 | 15 | 211 | 0.0 | 0.0 | 0.00 | 0.30 | 0.30 | 77 | 1011.0 |
| 20260510034604 | 15 | 211 | 0.0 | 0.0 | 0.00 | 0.30 | 0.30 | 78 | 1010.9 |
| 20260510034105 | 15 | 211 | 0.0 | 0.0 | 0.00 | 0.30 | 0.30 | 78 | 1010.9 |
| 20260510033605 | 15 | 211 | 0.0 | 0.0 | 0.00 | 0.30 | 0.30 | 78 | 1010.8 |
| 20260510033105 | 15 | 211 | 0.0 | 0.0 | 0.00 | 0.30 | 0.30 | 78 | 1010.9 |
| 20260510032605 | 15 | 211 | 0.0 | 0.0 | 0.00 | 0.30 | 0.30 | 77 | 1010.8 |
| 20260510031604 | 15 | 211 | 0.0 | 0.0 | 0.00 | 0.30 | 0.30 | 77 | 1010.8 |
| 20260510031105 | 16 | 211 | 0.0 | 0.0 | 0.00 | 0.30 | 0.30 | 77 | 1010.6 |
| 20260510030105 | 16 | 211 | 0.0 | 0.0 | 0.00 | 0.30 | 0.30 | 76 | 1010.6 |
| 20260510025605 | 16 | 211 | 0.0 | 0.0 | 0.00 | 0.30 | 0.30 | 75 | 1010.6 |
| 20260510025104 | 16 | 211 | 0.0 | 0.0 | 0.00 | 0.30 | 0.30 | 75 | 1010.6 |
| 20260510024604 | 16 | 211 | 0.0 | 0.0 | 0.00 | 0.30 | 0.30 | 75 | 1010.6 |
| 20260510024105 | 16 | 211 | 0.0 | 0.0 | 0.00 | 0.30 | 0.30 | 74 | 1010.6 |
| 20260510023605 | 16 | 211 | 0.0 | 0.0 | 0.00 | 0.30 | 0.30 | 74 | 1010.5 |
| 20260510023105 | 16 | 211 | 0.0 | 0.0 | 0.00 | 0.30 | 0.30 | 73 | 1010.5 |
| 20260510022605 | 16 | 211 | 0.0 | 0.0 | 0.00 | 0.30 | 0.30 | 73 | 1010.4 |
| 20260510022106 | 17 | 211 | 0.0 | 0.0 | 0.00 | 0.30 | 0.30 | 72 | 1010.3 |
| 20260510021605 | 17 | 211 | 0.0 | 0.0 | 0.00 | 0.30 | 0.30 | 72 | 1010.3 |
| 20260510021105 | 17 | 211 | 0.0 | 0.0 | 0.00 | 0.30 | 0.30 | 71 | 1010.2 |
| 20260510020605 | 17 | 211 | 0.0 | 0.0 | 0.00 | 0.30 | 0.30 | 70 | 1010.1 |
| 20260510015605 | 17 | 211 | 0.0 | 0.0 | 0.00 | 0.30 | 0.30 | 70 | 1010.0 |
| 20260510015104 | 18 | 211 | 0.0 | 0.0 | 0.00 | 0.30 | 0.30 | 68 | 1010.0 |
| 20260510014604 | 18 | 211 | 0.0 | 0.0 | 0.00 | 0.30 | 0.30 | 68 | 1009.9 |
| 20260510013605 | 18 | 211 | 0.0 | 0.0 | 0.00 | 0.30 | 0.30 | 67 | 1009.7 |
| 20260510013105 | 18 | 211 | 0.0 | 0.0 | 0.00 | 0.30 | 0.30 | 66 | 1009.6 |
| 20260510012605 | 18 | 211 | 0.0 | 0.0 | 0.00 | 0.33 | 0.30 | 66 | 1009.5 |
| 20260510012105 | 18 | 211 | 0.0 | 0.0 | 0.00 | 0.33 | 0.30 | 65 | 1009.5 |
| 20260510011605 | 18 | 211 | 0.0 | 1.6 | 0.00 | 0.33 | 0.30 | 65 | 1009.5 |
| 20260510011105 | 19 | 211 | 0.0 | 4.8 | 0.00 | 0.33 | 0.30 | 64 | 1009.4 |
| 20260510010605 | 19 | 211 | 0.0 | 0.0 | 0.00 | 0.33 | 0.30 | 64 | 1009.4 |
| 20260510010105 | 19 | 211 | 0.0 | 1.6 | 0.00 | 0.33 | 0.30 | 64 | 1009.4 |
| 20260510005604 | 19 | 211 | 0.0 | 3.2 | 0.00 | 0.33 | 0.30 | 64 | 1009.4 |
| 20260510005105 | 19 | 211 | 0.0 | 1.6 | 0.00 | 0.33 | 0.30 | 64 | 1009.4 |
| 20260510004604 | 20 | 211 | 0.0 | 3.2 | 0.00 | 0.33 | 0.30 | 64 | 1009.3 |
| 20260510004105 | 20 | 211 | 0.0 | 0.0 | 0.00 | 0.33 | 0.30 | 63 | 1009.1 |
| 20260510003605 | 20 | 211 | 0.0 | 0.0 | 0.00 | 0.33 | 0.30 | 63 | 1009.1 |
| 20260510003105 | 20 | 211 | 0.0 | 3.2 | 0.00 | 0.33 | 0.30 | 62 | 1009.0 |
| 20260510001605 | 20 | 210 | 0.0 | 3.2 | 0.00 | 0.33 | 0.30 | 61 | 1008.8 |
| 20260510000605 | 20 | 210 | 1.6 | 4.8 | 0.00 | 0.33 | 0.30 | 60 | 1008.7 |
| 20260510000105 | 20 | 210 | 1.6 | 4.8 | 0.00 | 0.33 | 0.30 | 60 | 1008.7 |
| 20260509235604 | 20 | 211 | 1.6 | 8.0 | 0.00 | 0.33 | 0.30 | 60 | 1008.5 |
| 20260509234105 | 21 | 200 | 0.0 | 4.8 | 0.00 | 0.33 | 0.30 | 58 | 1008.6 |
| 20260509233605 | 21 | 189 | 3.2 | 9.7 | 0.00 | 0.33 | 0.30 | 58 | 1008.5 |
| 20260509233104 | 21 | 39 | 0.0 | 3.2 | 0.00 | 0.33 | 0.30 | 58 | 1008.5 |
| 20260509232604 | 21 | 38 | 1.6 | 9.7 | 0.00 | 0.33 | 0.30 | 58 | 1008.5 |
| 20260509231605 | 21 | 335 | 1.6 | 4.8 | 0.00 | 0.33 | 0.30 | 57 | 1008.4 |
| 20260509231105 | 21 | 134 | 1.6 | 11.3 | 0.00 | 0.33 | 0.30 | 56 | 1008.5 |
| 20260509230604 | 21 | 207 | 3.2 | 8.0 | 0.00 | 0.33 | 0.30 | 57 | 1008.4 |
| 20260509230105 | 21 | 92 | 1.6 | 8.0 | 0.00 | 0.33 | 0.30 | 58 | 1008.4 |
| 20260509225604 | 21 | 210 | 3.2 | 11.3 | 0.00 | 0.33 | 0.30 | 57 | 1008.3 |
| 20260509225105 | 21 | 200 | 3.2 | 11.3 | 0.00 | 0.33 | 0.30 | 57 | 1008.3 |
| 20260509224105 | 21 | 249 | 3.2 | 11.3 | 0.00 | 0.33 | 0.30 | 57 | 1008.2 |
| 20260509223604 | 21 | 192 | 0.0 | 4.8 | 0.00 | 0.33 | 0.30 | 57 | 1008.2 |
| 20260509223104 | 21 | 178 | 3.2 | 8.0 | 0.00 | 0.33 | 0.30 | 56 | 1008.2 |
| 20260509222604 | 21 | 266 | 1.6 | 8.0 | 0.00 | 0.33 | 0.30 | 57 | 1008.4 |
| 20260509220105 | 21 | 208 | 4.8 | 11.3 | 0.00 | 0.33 | 0.30 | 57 | 1008.5 |
| 20260509215604 | 21 | 276 | 4.8 | 9.7 | 0.00 | 0.33 | 0.30 | 57 | 1008.5 |
| 20260509215104 | 21 | 309 | 3.2 | 9.7 | 0.00 | 0.33 | 0.30 | 58 | 1008.5 |
| 20260509214605 | 21 | 338 | 3.2 | 11.3 | 0.00 | 0.33 | 0.30 | 58 | 1008.5 |
| 20260509214104 | 21 | 186 | 3.2 | 9.7 | 0.00 | 0.33 | 0.30 | 58 | 1008.6 |
| 20260509213604 | 21 | 208 | 1.6 | 9.7 | 0.00 | 0.33 | 0.30 | 59 | 1008.7 |
| 20260509213104 | 21 | 217 | 6.4 | 11.3 | 0.00 | 0.33 | 0.30 | 59 | 1008.7 |
| 20260509212604 | 21 | 218 | 3.2 | 11.3 | 0.00 | 0.33 | 0.30 | 59 | 1008.6 |
| 20260509211605 | 21 | 196 | 3.2 | 8.0 | 0.00 | 0.33 | 0.30 | 59 | 1008.6 |
| 20260509211105 | 21 | 207 | 3.2 | 11.3 | 0.00 | 0.33 | 0.30 | 59 | 1008.7 |
| 20260509210604 | 21 | 195 | 1.6 | 4.8 | 0.00 | 0.33 | 0.30 | 60 | 1008.7 |
| 20260509210105 | 21 | 213 | 3.2 | 11.3 | 0.00 | 0.33 | 0.30 | 59 | 1008.8 |
| 20260509205105 | 21 | 209 | 4.8 | 11.3 | 0.00 | 0.33 | 0.30 | 59 | 1008.7 |
| 20260509204604 | 21 | 192 | 3.2 | 11.3 | 0.00 | 0.33 | 0.30 | 60 | 1008.8 |
| 20260509204105 | 21 | 50 | 1.6 | 8.0 | 0.00 | 0.33 | 0.30 | 60 | 1008.8 |
| 20260509203605 | 21 | 202 | 4.8 | 11.3 | 0.00 | 0.33 | 0.30 | 60 | 1008.8 |
| 20260509203104 | 21 | 211 | 3.2 | 8.0 | 0.00 | 0.33 | 0.30 | 62 | 1009.0 |
| 20260509202604 | 21 | 212 | 4.8 | 11.3 | 0.00 | 0.33 | 0.30 | 61 | 1008.8 |
| 20260509202104 | 21 | 210 | 1.6 | 8.0 | 0.00 | 0.33 | 0.30 | 61 | 1009.0 |
| 20260509201605 | 21 | 210 | 4.8 | 14.5 | 0.00 | 0.33 | 0.30 | 59 | 1009.1 |
| 20260509201105 | 21 | 206 | 3.2 | 11.3 | 0.00 | 0.33 | 0.30 | 63 | 1009.1 |
| 20260509200604 | 21 | 212 | 3.2 | 12.9 | 0.00 | 0.33 | 0.30 | 62 | 1009.1 |
| 20260509200105 | 21 | 175 | 1.6 | 12.9 | 0.00 | 0.33 | 0.30 | 63 | 1009.2 |
| 20260509195605 | 20 | 202 | 3.2 | 11.3 | 0.00 | 0.33 | 0.30 | 63 | 1009.3 |
| 20260509195104 | 20 | 221 | 4.8 | 16.1 | 0.00 | 0.33 | 0.30 | 62 | 1009.3 |
| 20260509194606 | 20 | 223 | 4.8 | 8.0 | 0.00 | 0.33 | 0.30 | 64 | 1009.4 |
| 20260509194105 | 20 | 211 | 1.6 | 9.7 | 0.00 | 0.33 | 0.30 | 65 | 1009.4 |
| 20260509193605 | 20 | 209 | 3.2 | 11.3 | 0.00 | 0.33 | 0.30 | 66 | 1009.5 |
| 20260509193104 | 20 | 173 | 1.6 | 9.7 | 0.00 | 0.33 | 0.30 | 65 | 1009.6 |
| 20260509192604 | 20 | 182 | 4.8 | 11.3 | 0.00 | 0.33 | 0.30 | 65 | 1009.7 |
| 20260509192104 | 20 | 212 | 3.2 | 12.9 | 0.00 | 0.33 | 0.30 | 65 | 1009.7 |
| 20260509191604 | 20 | 201 | 3.2 | 8.0 | 0.00 | 0.33 | 0.30 | 66 | 1009.9 |
| 20260509191104 | 20 | 140 | 3.2 | 9.7 | 0.00 | 0.33 | 0.30 | 66 | 1009.8 |